Regional Weather Roundup
Issued by NWS

Home | Current Version | Previous Version | Text Only | Print | Product List | Glossary On
Versions: 1 2 3 4 5 6 7 8 9 10 11 12 13 14 15 16 17 18 19 20 21 22 23 24 25 26 27 28 29 30 31 32 33 34 35 36 37 38 39 40 41 42 43 44 45 46 47 48 49 50
000
ASUS44 KBMX 130510
RWRAL

ALABAMA REGIONAL WEATHER ROUNDUP
NATIONAL WEATHER SERVICE BIRMINGHAM AL
1100 PM CST FRI FEB 12 2016

NOTE: "FAIR" INDICATES FEW OR NO CLOUDS BELOW 12,000 FEET
WITH NO SIGNIFICANT WEATHER AND/OR OBSTRUCTIONS TO VISIBILITY.

THE REMARK "TC" DENOTES TEMPERATURE IN DEGREES CELSIUS.

ALZ001>011-014-016>018-020-130600-
NORTH ALABAMA

CITY           SKY/WX    TMP DP  RH WIND       PRES   REMARKS
MUSCLE SHOALS  CLEAR     37  22  54 N7        30.37R WCI  32
HUNTSVILLE     CLEAR     36  23  59 N13       30.33S WCI  27
DECATUR        CLEAR     34  22  61 N10       30.35R WCI  26
HALEYVILLE     FAIR      34  24  67 N7        30.35R WCI  28
GADSDEN        PTCLDY    40  27  59 N9        30.30R WCI  34
$$

ALZ012-013-022-023-030>036-040>044-130600-
WEST CENTRAL ALABAMA

CITY           SKY/WX    TMP DP  RH WIND       PRES   REMARKS
TUSCALOOSA     PTCLDY    44  26  49 N13       30.35R
$$

ALZ015-024>027-033>036-040>044-130600-
CENTRAL ALABAMA

CITY           SKY/WX    TMP DP  RH WIND       PRES   REMARKS
BIRMINGHAM     CLEAR     42  27  55 N17       30.32R
MONTGOMERY     CLEAR     52  31  44 NW13      30.26R
SHELBY CO ARPT CLEAR     45  28  51 N10G23    30.29R
MAXWELL AFB    CLEAR     51  31  47 NW8       30.25R
GREENVILLE     FAIR      52  32  46 N8        30.24R
$$

ALZ019-021-028-029-037-038-045>048-130600-
EAST CENTRAL ALABAMA

CITY           SKY/WX    TMP DP  RH WIND       PRES   REMARKS
ANNISTON       CLEAR     44  25  47 NW8G23    30.27R
ALEXANDER CITY PTCLDY    46  31  57 NW9       30.24R
AUBURN         CLEAR     47  30  51 NW9       30.22R
$$

ALZ051>064-130600-
SOUTHWEST ALABAMA

CITY           SKY/WX    TMP DP  RH WIND       PRES   REMARKS
MOBILE         CLEAR     57  38  48 N14G23    30.28R
BROOKLEY FIELD CLEAR     59  39  47 NW12      30.28R
EVERGREEN      CLEAR     53  35  50 NW8       30.26R
$$

ALZ049-050-065>069-130600-
SOUTHEAST ALABAMA

CITY           SKY/WX    TMP DP  RH WIND       PRES   REMARKS
DOTHAN         CLEAR     54  35  48 NW10      30.22S
OZARK          CLEAR     55  37  50 NW12      30.20R
TROY           CLEAR     54  33  45 NW8       30.23R
EUFAULA        FAIR      55  34  45 NW6       30.19R
$$




USA.gov is the U.S. government's official web portal to all federal, state and local government web resources and services.